EW5225 Pinellas Park FL US current weather conditions

sailwx.info

Wind from 065 at 1 knots gusting 4

Air temperature 25.6° C
Dewpoint 24.3° C

Last reported at 2019-Jul-17 04:08 UTC.
Time now 2019-Jul-17 05:16 UTC

Location: N 27°51' W 082°40'.
View on Google Maps.

See reports from other nearby stations

  
Tides and Currents Weather Stations Pressure Air Temp Water Temp Dewpoint Dewpoint Depression Visibility Wind Speed Wind Dir Waves Ship Positions
date/time (UTC)wind fromknots sea level pressurealtimeterstation pressurevisibilityair tempwater tempwave heightnotes
2019-Jul-17 04:08 065 1 gusting 4 25.6
2019-Jul-17 04:03 193 0 gusting 2 25.6
2019-Jul-17 03:58 194 25.6
2019-Jul-17 03:53 194 25.6
2019-Jul-17 03:48 194 25.6
2019-Jul-17 03:43 194 25.6
2019-Jul-17 03:39 194 25.6
2019-Jul-17 03:33 194 25.6
2019-Jul-17 03:28 194 0 gusting 1 25.6
2019-Jul-17 03:24 194 25.6
2019-Jul-17 03:18 211 1 gusting 3 25.6
2019-Jul-17 03:13 182 1 gusting 3 26.1
2019-Jul-17 03:08 175 0 gusting 6 26.1
2019-Jul-17 03:03 171 1 gusting 6 26.1
2019-Jul-17 02:58 155 2 gusting 5 26.1
2019-Jul-17 02:54 121 1 gusting 2 26.1
2019-Jul-17 02:48 121 0 gusting 4 26.1
2019-Jul-17 02:43 073 1 gusting 4 26.1
2019-Jul-17 02:33 057 0 gusting 6 26.7
2019-Jul-17 02:28 038 2 gusting 6 26.7
2019-Jul-17 02:24 056 1 gusting 3 26.7
2019-Jul-17 02:18 060 0 gusting 3 26.7
2019-Jul-17 02:13 038 0 gusting 2 26.7
2019-Jul-17 02:09 038 27.2
2019-Jul-17 02:03 038 0 gusting 1 27.2
2019-Jul-17 01:58 134 27.2
2019-Jul-17 01:48 113 0 gusting 2 27.2
2019-Jul-17 01:43 109 0 gusting 2 27.2
2019-Jul-17 01:39 110 0 gusting 2 27.2
2019-Jul-17 01:33 325 27.2
2019-Jul-17 01:28 325 2 gusting 4 27.2
2019-Jul-17 01:23 336 0 gusting 4 27.2
2019-Jul-17 01:18 034 1 gusting 5 27.2
2019-Jul-17 01:08 030 2 gusting 8 27.2
2019-Jul-17 01:03 048 3 gusting 7 27.8
2019-Jul-17 00:53 088 5 gusting 12 28.3
2019-Jul-17 00:48 146 2 gusting 6 28.3
2019-Jul-17 00:43 010 2 gusting 6 28.3
2019-Jul-17 00:38 072 2 gusting 6 28.9
2019-Jul-17 00:28 094 3 gusting 9 29.4
2019-Jul-17 00:18 011 0 gusting 8 30.0
2019-Jul-17 00:08 063 1 gusting 9 30.6
2019-Jul-16 23:58 073 3 gusting 12 31.1
2019-Jul-16 23:53 041 6 gusting 11 31.7
2019-Jul-16 23:48 049 1 gusting 7 32.2
2019-Jul-16 23:43 096 2 gusting 9 32.2
2019-Jul-16 23:39 054 5 gusting 9 32.2
2019-Jul-16 23:33 077 2 gusting 6 32.8
2019-Jul-16 23:28 014 3 gusting 6 32.8
2019-Jul-16 23:18 022 3 gusting 9 32.8
2019-Jul-16 23:13 336 4 gusting 9 32.8
2019-Jul-16 23:08 344 2 gusting 6 33.3
2019-Jul-16 23:03 323 1 gusting 7 33.3
2019-Jul-16 22:58 341 4 gusting 8 32.8
2019-Jul-16 22:53 005 3 gusting 9 33.3
2019-Jul-16 22:48 321 4 gusting 6 33.3
2019-Jul-16 22:43 025 3 gusting 8 32.8
2019-Jul-16 22:38 271 3 gusting 8 32.8
2019-Jul-16 22:33 011 1 gusting 8 32.8
2019-Jul-16 22:28 355 3 gusting 8 32.8
2019-Jul-16 22:23 305 4 gusting 9 32.2
2019-Jul-16 22:18 327 5 gusting 9 32.2
2019-Jul-16 22:13 355 4 gusting 9 31.7
2019-Jul-16 22:08 294 3 gusting 8 31.7
2019-Jul-16 22:03 331 4 gusting 8 31.7
2019-Jul-16 21:59 302 4 gusting 8 31.7
2019-Jul-16 21:53 285 2 gusting 7 32.2
2019-Jul-16 21:48 333 2 gusting 6 32.2
2019-Jul-16 21:38 325 2 gusting 6 32.2
2019-Jul-16 21:34 355 3 gusting 7 32.8
2019-Jul-16 21:28 342 2 gusting 8 33.3
2019-Jul-16 21:23 293 3 gusting 10 33.3
2019-Jul-16 21:19 330 4 gusting 10 33.3
2019-Jul-16 21:13 334 3 gusting 10 33.9
2019-Jul-16 21:09 355 5 gusting 10 33.9
2019-Jul-16 21:03 323 4 gusting 10 33.9
2019-Jul-16 20:58 329 4 gusting 9 34.4
2019-Jul-16 20:54 323 3 gusting 9 34.4
2019-Jul-16 20:48 322 3 gusting 11 34.4
2019-Jul-16 20:43 310 5 gusting 11 34.4
2019-Jul-16 20:38 337 4 gusting 10 34.4
2019-Jul-16 20:33 238 2 gusting 10 34.4
2019-Jul-16 20:29 339 4 gusting 8 34.4
2019-Jul-16 20:23 344 3 gusting 9 34.4
2019-Jul-16 20:18 344 2 gusting 11 34.4
2019-Jul-16 20:13 277 3 gusting 11 34.4
2019-Jul-16 20:08 252 2 gusting 8 33.9
2019-Jul-16 20:03 328 4 gusting 7 33.9
2019-Jul-16 19:53 338 1 gusting 6 33.9
2019-Jul-16 19:48 262 2 gusting 5 34.4
2019-Jul-16 19:43 348 0 gusting 8 34.4
2019-Jul-16 19:38 293 3 gusting 8 35.6
2019-Jul-16 19:33 309 1 gusting 8 36.1
2019-Jul-16 19:29 309 2 gusting 6 37.2
2019-Jul-16 19:24 273 0 gusting 3 37.2
2019-Jul-16 19:18 207 37.2
2019-Jul-16 19:13 145 1 gusting 4 36.7
2019-Jul-16 19:08 172 1 gusting 4 37.2
2019-Jul-16 19:03 344 0 gusting 5 37.2
2019-Jul-16 18:53 042 0 gusting 4 37.2
2019-Jul-16 18:48 319 0 gusting 5 37.2
2019-Jul-16 18:43 336 1 gusting 5 37.2
2019-Jul-16 18:38 050 2 gusting 6 37.8
2019-Jul-16 18:28 190 1 gusting 6 37.2
2019-Jul-16 18:23 177 2 gusting 6 37.2
2019-Jul-16 18:18 209 2 gusting 6 37.2
2019-Jul-16 18:13 142 3 gusting 8 37.2
2019-Jul-16 18:03 159 1 gusting 6 36.7
2019-Jul-16 17:59 030 1 gusting 6 36.7
2019-Jul-16 17:53 043 1 gusting 6 37.2
2019-Jul-16 17:48 162 2 gusting 6 36.7
2019-Jul-16 17:43 142 0 gusting 6 36.7
2019-Jul-16 17:38 166 2 gusting 6 36.1
2019-Jul-16 17:28 047 1 gusting 5 35.6
2019-Jul-16 17:23 104 2 gusting 6 35.6
2019-Jul-16 17:19 202 2 gusting 6 36.1
2019-Jul-16 17:13 177 2 gusting 6 36.1
2019-Jul-16 17:08 141 2 gusting 6 36.1
2019-Jul-16 16:58 146 2 gusting 5 35.6
2019-Jul-16 16:54 057 2 gusting 7 35.6
2019-Jul-16 16:48 326 2 gusting 7 36.1
2019-Jul-16 16:43 282 0 gusting 2 36.1
2019-Jul-16 16:39 119 0 gusting 3 36.1
2019-Jul-16 16:33 158 1 gusting 5 35.6
2019-Jul-16 16:28 155 0 gusting 5 35.0
2019-Jul-16 16:24 112 2 gusting 6 34.4
2019-Jul-16 16:18 143 2 gusting 6 34.4
2019-Jul-16 16:13 157 1 gusting 6 34.4
2019-Jul-16 16:03 086 1 gusting 5 34.4
2019-Jul-16 15:58 074 1 gusting 6 34.4
2019-Jul-16 15:54 113 2 gusting 6 34.4
2019-Jul-16 15:48 064 1 gusting 7 34.4
2019-Jul-16 15:43 056 3 gusting 7 34.4
2019-Jul-16 15:39 155 0 gusting 4 34.4
2019-Jul-16 15:33 168 2 gusting 4 34.4
2019-Jul-16 15:28 346 1 gusting 5 33.9
2019-Jul-16 15:24 095 1 gusting 5 33.9
2019-Jul-16 15:18 090 0 gusting 5 33.9
2019-Jul-16 15:13 105 0 gusting 5 33.9
2019-Jul-16 15:09 162 0 gusting 5 33.3
2019-Jul-16 15:03 144 2 gusting 5 33.3
2019-Jul-16 14:58 148 2 gusting 4 33.3
2019-Jul-16 14:53 150 1 gusting 5 32.8
2019-Jul-16 14:48 100 0 gusting 5 32.8
2019-Jul-16 14:44 127 0 gusting 4 32.8
2019-Jul-16 14:38 141 1 gusting 4 32.2
2019-Jul-16 14:33 184 0 gusting 4 32.2
2019-Jul-16 14:29 230 1 gusting 5 32.2
2019-Jul-16 14:23 173 1 gusting 6 31.7
2019-Jul-16 14:18 155 2 gusting 6 31.7
2019-Jul-16 14:13 157 2 gusting 6 31.7
2019-Jul-16 14:08 168 3 gusting 6 31.1
2019-Jul-16 14:04 191 3 gusting 6 31.1
2019-Jul-16 13:58 138 2 gusting 4 31.1
2019-Jul-16 13:53 170 1 gusting 6 31.1
2019-Jul-16 13:49 156 2 gusting 6 30.6
2019-Jul-16 13:43 167 2 gusting 6 30.6
2019-Jul-16 13:38 172 3 gusting 6 30.6
2019-Jul-16 13:34 146 3 gusting 6 30.0
2019-Jul-16 13:28 151 2 gusting 7 30.0
2019-Jul-16 13:23 172 4 gusting 6 30.0
2019-Jul-16 13:18 167 3 gusting 7 30.0
2019-Jul-16 13:13 149 4 gusting 7 29.4
2019-Jul-16 13:08 165 2 gusting 6 29.4
2019-Jul-16 13:03 139 2 gusting 6 29.4
2019-Jul-16 12:58 148 2 gusting 8 29.4
2019-Jul-16 12:53 163 3 gusting 6 28.9
2019-Jul-16 12:49 184 2 gusting 6 28.9
2019-Jul-16 12:43 159 2 gusting 6 28.9
2019-Jul-16 12:38 141 3 gusting 6 28.3
2019-Jul-16 12:28 153 3 gusting 7 28.3
2019-Jul-16 12:18 159 2 gusting 8 27.8
2019-Jul-16 12:13 196 1 gusting 6 27.8
2019-Jul-16 12:08 169 2 gusting 6 27.2
2019-Jul-16 12:03 129 2 gusting 6 27.2
2019-Jul-16 11:53 162 2 gusting 6 27.2
2019-Jul-16 11:43 154 1 gusting 4 26.7
2019-Jul-16 11:38 153 1 gusting 2 26.7
2019-Jul-16 11:33 152 0 gusting 2 26.7
2019-Jul-16 11:28 152 1 gusting 2 26.7
2019-Jul-16 11:24 152 1 gusting 2 26.7
2019-Jul-16 11:18 152 1 gusting 2 26.7
2019-Jul-16 11:13 152 0 gusting 2 26.7
2019-Jul-16 11:09 152 0 gusting 2 26.7
2019-Jul-16 11:03 152 0 gusting 1 26.7
2019-Jul-16 10:58 152 0 gusting 2 26.7
2019-Jul-16 10:54 152 0 gusting 2 26.7
2019-Jul-16 10:48 152 26.7
2019-Jul-16 10:43 152 0 gusting 2 26.7
2019-Jul-16 10:38 152 0 gusting 2 26.7
2019-Jul-16 10:33 152 0 gusting 2 26.7
2019-Jul-16 10:29 152 0 gusting 2 26.7
2019-Jul-16 10:23 152 26.7
2019-Jul-16 10:18 152 0 gusting 2 26.7
2019-Jul-16 10:14 152 0 gusting 2 26.7
2019-Jul-16 10:08 152 0 gusting 4 26.7
2019-Jul-16 10:04 152 0 gusting 4 26.7
2019-Jul-16 09:58 152 0 gusting 1 26.7
2019-Jul-16 09:53 152 0 gusting 2 26.7
2019-Jul-16 09:49 152 0 gusting 2 26.7
2019-Jul-16 09:43 152 0 gusting 2 26.7
2019-Jul-16 09:38 152 0 gusting 2 26.7
2019-Jul-16 09:34 171 26.7
2019-Jul-16 09:28 171 0 gusting 3 26.7
2019-Jul-16 09:23 171 0 gusting 4 26.7
2019-Jul-16 09:13 158 0 gusting 4 26.7
2019-Jul-16 09:09 136 0 gusting 2 26.7
2019-Jul-16 09:03 145 0 gusting 2 26.7
2019-Jul-16 08:58 153 1 gusting 4 26.7
2019-Jul-16 08:48 154 0 gusting 5 26.7
2019-Jul-16 08:44 163 0 gusting 5 26.7
2019-Jul-16 08:38 130 0 gusting 4 26.7
2019-Jul-16 08:33 123 0 gusting 3 26.7
2019-Jul-16 08:23 148 1 gusting 4 27.2
2019-Jul-16 08:19 153 1 gusting 4 27.2
2019-Jul-16 08:13 155 1 gusting 5 27.2
2019-Jul-16 08:08 115 1 gusting 5 27.2
2019-Jul-16 08:04 196 1 gusting 5 27.2
2019-Jul-16 07:58 159 1 gusting 5 27.2
2019-Jul-16 07:53 148 1 gusting 5 27.2
2019-Jul-16 07:49 105 1 gusting 5 27.2
2019-Jul-16 07:43 136 0 gusting 6 27.2
2019-Jul-16 07:38 142 1 gusting 6 27.2
2019-Jul-16 07:28 195 0 gusting 5 27.2
2019-Jul-16 07:24 153 1 gusting 4 27.2
2019-Jul-16 07:18 154 1 gusting 3 26.7
2019-Jul-16 07:13 099 0 gusting 5 26.7
2019-Jul-16 07:03 127 0 gusting 5 27.2
2019-Jul-16 06:58 121 0 gusting 2 27.2
2019-Jul-16 06:54 120 0 gusting 2 27.2
2019-Jul-16 06:48 148 0 gusting 3 27.2
2019-Jul-16 06:44 103 0 gusting 3 27.2
2019-Jul-16 06:38 121 0 gusting 2 27.2
2019-Jul-16 06:33 108 0 gusting 2 27.2
2019-Jul-16 06:28 105 0 gusting 1 27.2
2019-Jul-16 06:23 105 0 gusting 1 27.2
2019-Jul-16 06:18 105 27.2
2019-Jul-16 06:13 105 27.2
2019-Jul-16 06:03 105 0 gusting 3 27.2
2019-Jul-16 05:58 123 0 gusting 2 27.2
2019-Jul-16 05:53 123 27.2
2019-Jul-16 05:48 123 0 gusting 5 27.2
2019-Jul-16 05:43 074 0 gusting 3 27.2
2019-Jul-16 05:38 074 0 gusting 3 27.2
2019-Jul-16 05:33 092 27.2
2019-Jul-16 05:28 098 0 gusting 2 27.2
2019-Jul-16 05:23 098 0 gusting 2 27.2
2019-Jul-16 05:18 098 0 gusting 2 27.2
2019-Jul-16 05:13 096 1 gusting 2 27.2
2019-Jul-16 05:08 096 0 gusting 2 27.2
2019-Jul-16 05:03 096 27.8
2019-Jul-16 04:58 096 0 gusting 3 27.8
2019-Jul-16 04:53 096 0 gusting 5 27.2
2019-Jul-16 04:48 081 1 gusting 5 27.2
2019-Jul-16 04:43 092 0 gusting 2 27.2
2019-Jul-16 04:38 098 27.2
2019-Jul-16 04:33 098 0 gusting 3 27.2
2019-Jul-16 04:28 094 0 gusting 3 27.2
2019-Jul-16 04:23 069 0 gusting 2 27.2
2019-Jul-16 04:18 069 0 gusting 2 27.2
2019-Jul-16 04:13 068 0 gusting 2 27.2
2019-Jul-16 04:08 067 1 gusting 2 27.2
2019-Jul-16 04:03 049 0 gusting 1 27.2
2019-Jul-16 03:59 049 0 gusting 1 27.2
2019-Jul-16 03:53 049 0 gusting 1 27.2
2019-Jul-16 03:48 049 27.2
2019-Jul-16 03:44 049 27.2
2019-Jul-16 03:38 049 27.8
2019-Jul-16 03:33 049 27.2
2019-Jul-16 03:29 049 27.8
2019-Jul-16 03:23 049 27.8
2019-Jul-16 03:18 049 27.8
2019-Jul-16 03:13 049 27.8
2019-Jul-16 03:08 049 0 gusting 2 27.8
2019-Jul-16 03:03 042 27.8
2019-Jul-16 02:58 042 27.8
2019-Jul-16 02:53 042 27.8
2019-Jul-16 02:48 042 0 gusting 2 27.8
2019-Jul-16 02:44 042 27.8
2019-Jul-16 02:38 042 27.8
2019-Jul-16 02:33 042 27.8
2019-Jul-16 02:23 042 0 gusting 3 27.8
2019-Jul-16 02:18 060 0 gusting 3 27.8
2019-Jul-16 02:13 061 1 gusting 5 27.8
2019-Jul-16 02:08 029 2 gusting 5 27.8
2019-Jul-16 02:03 047 0 gusting 4 28.3
2019-Jul-16 01:53 030 0 gusting 3 28.3
2019-Jul-16 01:48 009 28.3
2019-Jul-16 01:44 009 0 gusting 1 28.3
2019-Jul-16 01:39 009 28.3
2019-Jul-16 01:33 005 28.3
2019-Jul-16 01:28 005 28.3
2019-Jul-16 01:23 329 28.3
2019-Jul-16 01:18 329 0 gusting 2 28.3
2019-Jul-16 01:14 324 0 gusting 2 28.3
2019-Jul-16 01:08 274 0 gusting 1 28.3
2019-Jul-16 01:03 274 28.3
2019-Jul-16 00:59 274 28.3
2019-Jul-16 00:53 204 28.3
2019-Jul-16 00:48 204 0 gusting 2 28.3
2019-Jul-16 00:43 206 28.3
2019-Jul-16 00:38 206 28.3
2019-Jul-16 00:34 206 28.3
2019-Jul-16 00:28 206 28.3
2019-Jul-16 00:24 206 28.3
2019-Jul-16 00:18 167 1 gusting 2 28.3
2019-Jul-16 00:13 039 28.3
2019-Jul-16 00:09 039 28.3
2019-Jul-16 00:03 039 28.3
2019-Jul-15 23:59 039 28.3
2019-Jul-15 23:53 093 0 gusting 2 28.3
2019-Jul-15 23:48 094 28.3
2019-Jul-15 23:44 094 28.3
2019-Jul-15 23:38 094 27.8
2019-Jul-15 23:33 094 27.8
2019-Jul-15 23:28 094 1 gusting 3 27.8
2019-Jul-15 23:23 215 0 gusting 2 28.3
2019-Jul-15 23:13 216 0 gusting 5 28.3
2019-Jul-15 23:09 217 1 gusting 5 28.3
2019-Jul-15 23:03 186 1 gusting 5 28.3
2019-Jul-15 22:58 153 1 gusting 5 28.9
2019-Jul-15 22:54 150 2 gusting 6 28.9
2019-Jul-15 22:48 140 3 gusting 10 29.4
2019-Jul-15 22:43 169 3 gusting 13 30.0
2019-Jul-15 22:39 114 5 gusting 13 30.6
2019-Jul-15 22:33 067 1 gusting 6 31.1
2019-Jul-15 22:28 021 2 gusting 6 31.1
2019-Jul-15 22:23 040 2 gusting 5 31.1
2019-Jul-15 22:18 355 0 gusting 8 31.7
2019-Jul-15 22:08 005 5 gusting 12 32.2
2019-Jul-15 21:58 315 3 gusting 9 32.2
2019-Jul-15 21:53 290 5 gusting 10 32.2
2019-Jul-15 21:48 311 3 gusting 10 32.8
2019-Jul-15 21:43 336 4 gusting 11 32.8
2019-Jul-15 21:39 324 5 gusting 11 32.8
2019-Jul-15 21:33 360 5 gusting 10 32.8
2019-Jul-15 21:28 344 5 gusting 8 32.8
2019-Jul-15 21:24 022 2 gusting 8 32.2
2019-Jul-15 21:18 326 2 gusting 8 32.2
2019-Jul-15 21:13 319 5 gusting 8 32.2
2019-Jul-15 21:09 272 0 gusting 5 31.7
2019-Jul-15 21:03 005 1 gusting 8 31.7
2019-Jul-15 20:53 348 2 gusting 8 31.7
2019-Jul-15 20:48 336 3 gusting 11 31.7
2019-Jul-15 20:38 337 6 gusting 11 31.7
2019-Jul-15 20:34 329 4 gusting 10 32.2
2019-Jul-15 20:28 348 4 gusting 11 32.2
2019-Jul-15 20:23 300 4 gusting 8 32.8
2019-Jul-15 20:18 016 3 gusting 9 33.3
2019-Jul-15 20:13 321 4 gusting 10 33.3
2019-Jul-15 20:03 316 3 gusting 8 33.3
2019-Jul-15 19:53 348 4 gusting 7 33.3
2019-Jul-15 19:43 344 5 gusting 10 33.9
2019-Jul-15 19:33 309 3 gusting 9 34.4
2019-Jul-15 19:29 355 3 gusting 7 35.0
2019-Jul-15 19:23 348 3 gusting 7 36.1
2019-Jul-15 19:18 319 2 gusting 6 36.7
2019-Jul-15 19:08 097 1 gusting 4 37.2
2019-Jul-15 19:04 126 1 gusting 4 37.8
2019-Jul-15 18:58 173 0 gusting 6 37.2
2019-Jul-15 18:53 076 2 gusting 7 37.2
2019-Jul-15 18:43 049 37.2
2019-Jul-15 18:33 103 1 gusting 5 36.7
2019-Jul-15 18:23 103 1 gusting 6 36.7
2019-Jul-15 18:18 065 0 gusting 6 36.7
2019-Jul-15 18:13 355 0 gusting 6 36.7
2019-Jul-15 18:08 175 2 gusting 6 36.1
2019-Jul-15 18:03 103 0 gusting 6 36.1
2019-Jul-15 17:58 052 1 gusting 6 36.1
2019-Jul-15 17:53 098 2 gusting 6 36.1
2019-Jul-15 17:48 119 0 gusting 5 35.6
2019-Jul-15 17:44 117 1 gusting 6 36.1
2019-Jul-15 17:38 092 0 gusting 5 36.1
2019-Jul-15 17:33 082 2 gusting 5 36.1
2019-Jul-15 17:29 128 0 gusting 5 36.1
2019-Jul-15 17:23 123 1 gusting 5 35.6
2019-Jul-15 17:18 101 0 gusting 6 35.0
2019-Jul-15 17:14 148 1 gusting 6 35.0
2019-Jul-15 17:08 103 2 gusting 6 35.6
2019-Jul-15 17:03 146 1 gusting 6 35.6
2019-Jul-15 16:53 120 0 gusting 6 35.0
2019-Jul-15 16:49 093 2 gusting 5 34.4
2019-Jul-15 16:43 092 1 gusting 7 34.4
2019-Jul-15 16:38 117 2 gusting 7 34.4
2019-Jul-15 16:34 149 3 gusting 7 35.0
2019-Jul-15 16:28 123 2 gusting 6 35.0
2019-Jul-15 16:23 119 1 gusting 6 35.0
2019-Jul-15 16:13 045 1 gusting 6 35.0
2019-Jul-15 16:03 133 0 gusting 3 34.4
2019-Jul-15 15:58 153 34.4
2019-Jul-15 15:53 146 2 gusting 5 33.9
2019-Jul-15 15:48 127 2 gusting 5 34.4
2019-Jul-15 15:38 123 1 gusting 4 33.9
2019-Jul-15 15:33 036 1 gusting 4 33.9
2019-Jul-15 15:28 186 1 gusting 4 33.9
2019-Jul-15 15:23 186 1 gusting 4 33.9
2019-Jul-15 15:13 098 2 gusting 5 33.3
2019-Jul-15 15:03 154 2 gusting 5 33.3
2019-Jul-15 14:59 120 0 gusting 3 32.8
2019-Jul-15 14:53 105 1 gusting 3 32.8
2019-Jul-15 14:48 119 1 gusting 5 32.8
2019-Jul-15 14:44 153 1 gusting 6 32.8
2019-Jul-15 14:38 147 3 gusting 6 32.2
2019-Jul-15 14:33 225 1 gusting 4 32.2
2019-Jul-15 14:23 162 3 gusting 6 31.7
2019-Jul-15 14:19 201 2 gusting 5 31.7
2019-Jul-15 14:13 134 2 gusting 5 31.1
2019-Jul-15 14:08 203 2 gusting 5 31.1
2019-Jul-15 14:04 189 2 gusting 5 31.1
2019-Jul-15 13:58 133 1 gusting 6 30.6
2019-Jul-15 13:53 169 3 gusting 6 30.6
2019-Jul-15 13:48 175 3 gusting 6 30.6
2019-Jul-15 13:43 147 3 gusting 6 30.0
2019-Jul-15 13:38 154 2 gusting 6 30.0
2019-Jul-15 13:34 139 3 gusting 6 30.0
2019-Jul-15 13:28 151 2 gusting 6 29.4
2019-Jul-15 13:23 133 2 gusting 6 29.4
2019-Jul-15 13:18 153 1 gusting 6 29.4
2019-Jul-15 13:08 182 2 gusting 6 28.9
2019-Jul-15 13:03 159 2 gusting 6 28.9
2019-Jul-15 12:58 182 3 gusting 6 28.9
2019-Jul-15 12:53 157 2 gusting 6 28.3
2019-Jul-15 12:48 153 2 gusting 6 28.3
2019-Jul-15 12:38 142 1 gusting 5 27.8
2019-Jul-15 12:28 170 2 gusting 5 27.8
2019-Jul-15 12:24 165 2 gusting 6 27.2
2019-Jul-15 12:18 154 2 gusting 5 27.2
2019-Jul-15 12:13 145 2 gusting 5 27.2
2019-Jul-15 12:03 171 1 gusting 4 26.7
2019-Jul-15 11:59 155 1 gusting 2 26.7
2019-Jul-15 11:53 132 0 gusting 2 26.7
2019-Jul-15 11:49 132 0 gusting 2 26.7
2019-Jul-15 11:43 132 26.1
2019-Jul-15 11:38 132 0 gusting 1 26.1
2019-Jul-15 11:34 132 26.1
2019-Jul-15 11:28 132 0 gusting 2 26.1
2019-Jul-15 11:23 132 0 gusting 2 26.1
2019-Jul-15 11:13 132 26.1
2019-Jul-15 11:09 132 0 gusting 1 26.1
2019-Jul-15 11:03 132 26.1
2019-Jul-15 10:58 132 26.1
2019-Jul-15 10:54 132 26.1
2019-Jul-15 10:48 132 26.1
2019-Jul-15 10:43 132 0 gusting 2 26.1
2019-Jul-15 10:39 132 0 gusting 2 26.1
2019-Jul-15 10:33 126 0 gusting 1 26.1
2019-Jul-15 10:28 126 26.1
2019-Jul-15 10:24 126 26.1
2019-Jul-15 10:18 126 0 gusting 1 26.1
2019-Jul-15 10:14 126 26.1
2019-Jul-15 10:08 126 26.1
2019-Jul-15 10:03 126 26.1
2019-Jul-15 09:53 126 26.1
2019-Jul-15 09:48 126 26.1
2019-Jul-15 09:43 126 26.1
2019-Jul-15 09:38 126 26.1
2019-Jul-15 09:34 126 26.1
2019-Jul-15 09:28 126 0 gusting 1 26.1
2019-Jul-15 09:23 126 26.1
2019-Jul-15 09:19 126 26.1
2019-Jul-15 09:13 126 26.1
2019-Jul-15 09:08 126 0 gusting 2 26.1
2019-Jul-15 09:04 126 0 gusting 2 26.1
2019-Jul-15 08:58 123 0 gusting 1 26.1
2019-Jul-15 08:53 123 26.1
2019-Jul-15 08:49 123 26.7
2019-Jul-15 08:43 133 0 gusting 3 26.7
2019-Jul-15 08:38 129 0 gusting 2 26.7
2019-Jul-15 08:34 129 0 gusting 2 26.7
2019-Jul-15 08:28 134 0 gusting 5 26.7
2019-Jul-15 08:23 153 1 gusting 5 26.7
2019-Jul-15 08:19 117 1 gusting 3 26.7
2019-Jul-15 08:13 138 0 gusting 3 26.7
2019-Jul-15 08:08 139 0 gusting 3 26.7
2019-Jul-15 08:04 138 1 gusting 6 26.7
2019-Jul-15 07:58 172 0 gusting 2 26.7
2019-Jul-15 07:53 144 0 gusting 4 26.7
2019-Jul-15 07:43 183 0 gusting 3 26.7
2019-Jul-15 07:39 128 1 gusting 3 26.7
2019-Jul-15 07:33 126 1 gusting 3 26.7
2019-Jul-15 07:28 149 1 gusting 3 26.7
2019-Jul-15 07:24 134 27.2
2019-Jul-15 07:18 134 27.2
2019-Jul-15 07:13 134 27.2
2019-Jul-15 07:09 134 0 gusting 2 27.2
2019-Jul-15 07:03 134 0 gusting 2 27.2
2019-Jul-15 06:58 134 0 gusting 2 27.2
2019-Jul-15 06:54 134 0 gusting 3 27.2
2019-Jul-15 06:48 144 0 gusting 3 27.2
2019-Jul-15 06:43 132 0 gusting 2 27.2
2019-Jul-15 06:39 163 0 gusting 3 27.8
2019-Jul-15 06:33 164 1 gusting 5 27.8
2019-Jul-15 06:28 148 1 gusting 5 27.8
2019-Jul-15 06:23 144 1 gusting 5 27.8
2019-Jul-15 06:18 143 1 gusting 3 27.8
2019-Jul-15 06:14 150 0 gusting 3 27.8
2019-Jul-15 06:08 146 0 gusting 2 27.8
2019-Jul-15 06:03 152 27.8
2019-Jul-15 05:58 168 1 gusting 4 28.3
2019-Jul-15 05:53 169 1 gusting 3 28.3
2019-Jul-15 05:48 177 28.3
2019-Jul-15 05:43 177 0 gusting 4 28.3
2019-Jul-15 05:38 178 1 gusting 4 28.3
2019-Jul-15 05:33 143 1 gusting 2 28.3
2019-Jul-15 05:28 142 1 gusting 2 28.3
2019-Jul-15 05:23 128 1 gusting 3 28.3
2019-Jul-15 05:18 111 1 gusting 3 28.9
2019-Jul-15 05:13 146 0 gusting 4 28.9
2019-Jul-15 05:08 152 1 gusting 6 28.9
2019-Jul-15 05:03 128 1 gusting 6 28.9